France Régions

Rallye National de Balagne 2020 : ES 1 : Jean-Matthieu Leandri frappe fort !

Quel travail admirable de l’ASA Corsica qui a permis à ce Rallye de Balagne 2020 de pouvoir se dérouler et dans le contexte actuel c’est un petit exploit. C’est parti pour le Rallye National de Balagne 2020 avec l’ES1 Pont du Fango – N.D. de la Serra 1 – 27.77 kms.

Deux spéciales au programme de ce jour et c’est le premier passage sur les 27.77 kms de Pont du Fango – N.D. de la Serra, le second passage sera à vivre dès 13 h 51 !

Rallye de Balagne 2020 by Quentin Ribaud Photographie

Première information il a plu toute la nuit sur l’ile de beauté et les concurrents devraient trouver des conditions humides sur les spéciales.

Conditions :

Route légèrement humide à l’arrivée de l’ES1 avec un ciel dégagé.

Temps Forts :

C’est bel et bien parti après de longues semaines d’attente les moteurs grondent de nouveau en France et ce sont les VHC qui ouvrent le bal !

C’est pour le moment Jean Mathieu Léandri qui impose sa loi avec un gros temps seul Battistu Ceccaldi suit le rythme à 2.9 s alors Mickael Reydellet est à plus de 1à secondes alors Paul Alérini est à 18.2 secondes.

Les seules WRC du plateau sont loin pour le moment 12 et 18 ème temps pour Courchet et Simonetti.

On vous le dit, le premier exploit de cette ES est à mettre à l’actif de Jonathan Bouéri avec son R11 qui claque un 11 ème temps scratch ! C’est magnifique

Temps ES1 Moderne :

CLN° EQUIPAGE VOITURE GROUPE CLASSE TEMPS
12LEANDRI Jean-MathieuCORIA AlexandreVOLKSWAGEN PoloR517:11:3
28CECCALDI BattiLECULIER RomainSKODA FabiaR517:14:2+ 00:02.9+ 00:02.9
36MARIANI Paul-AndreTYRAN MathieuVOLKSWAGEN PoloR517:21:7+ 00:10.4+ 00:07.5
414REYDELLET MickaelLAZZARINI Jean-PaulVOLKSWAGEN PoloR517:21:9+ 00:10.6+ 00:00.2
51FREDENUCCI KévinKERN AndreaVOLKSWAGEN PoloR517:22:0+ 00:10.7+ 00:00.1
63ARGENTI ThomasGORDON FabriceVOLKSWAGEN PoloR517:23:6+ 00:12.3+ 00:01.6
74ALERINI PaulNANNI XavierSKODA FabiaR517:29:5+ 00:18.2+ 00:05.9
87AGUZZI TonyGUGLIELMI Marc-MarieVOLKSWAGEN PoloR517:30:5+ 00:19.2+ 00:01.0
920CESARI LaurentGATTEBOIS ThomasPEUGEOT 207 S2000A7S17:52:5+ 00:41.2+ 00:22.0
1081ROSSEL LéoRAYNAUD LucieRENAULT Clio Super 1600FA6K17:53:9+ 00:42.6+ 00:01.4
1123GODARD LudovicGILLIOT FranckALPINE A110 RgtRGT1618:01:6+ 00:50.3+ 00:07.7
1268BOUERI JonathanMARTINI MaximeRENAULT R11F20001418:03:3+ 00:52.0+ 00:01.7
1311COSTA ArnaudTADDEI TonySKODA FabiaR518:05:8+ 00:54.5+ 00:02.5
1495AVAZERI ChristianTOMMASINI AntoineCITROËN C2 R2 MaxR218:12:2+ 01:00.9+ 00:06.4
1560LOUVEL HugoMAURIN MathieuPEUGEOT 208RC418:13:7+ 01:02.4+ 00:01.5
16123BALDRICHI HenryCORSI FrédéricCITROËN SaxoF20001318:19:5+ 01:08.2+ 00:05.8
1759CHAUFFRAY ThomasHAMARD AnthonyPEUGEOT 208RC418:21:0+ 01:09.7+ 00:01.5
1810CASCIANI FrédérikBELHACENE MatthieuFORD FiestaR518:22:6+ 01:11.3+ 00:01.6
19137FOTIA AnthonySIRUGUE DidierRENAULT ClioRC518:26:0+ 01:14.7+ 00:03.4
2099FRANCISCI YannickVINCIGUERRA Lisa MarieCITROËN C2 R2 MaxR218:29:6+ 01:18.3+ 00:03.6
2143BONEL AntonyMANENT RoselyneRENAULT Clio R3tR3T18:33:4+ 01:22.1+ 00:03.8
2276CLEMENCON BenjaminMAILLE StéphanePEUGEOT RczF20001418:34:7+ 01:23.4+ 00:01.3
2375CIRASA SteeveBORELLI AlexandrePEUGEOT 206F20001418:35:3+ 01:24.0+ 00:00.6
245COURCHET Julien-AlexandreSARRAFIAN AlainFORD FiestaA8W18:36:5+ 01:25.2+ 00:01.2
2538GANDELLI DavidMERCOIRET GuillaumeAUDI S1 QuattroR4 FIA18:37:5+ 01:26.2+ 00:01.0
2637GALEANI Jean-JosephLEONARDI Pierre-MarienMITSUBISHI Evolution 9R418:42:3+ 01:31.0+ 00:04.8
2783RAYNAUD GabrielJULIEN WilliamRENAULT Clio Super 1600FA6K18:42:3+ 01:31.0+ 00:00.0
2896FIORI Jean-AntoinePERRINAUD MaëvaPEUGEOT 208R218:42:4+ 01:31.1+ 00:00.1
2941VIVENS YannickTRIAIRE StéphaneCITROËN Ds3R3T18:43:9+ 01:32.6+ 00:01.5
30100REBOA MarcMARIE CécilePEUGEOT 208R218:49:0+ 01:37.7+ 00:05.1
3127BENAZZI PierreESPOSITO Jean-MichelPORSCHE 996GT1018:51:0+ 01:39.7+ 00:02.0
3272LECHARTIER AyrtonOLEA CharlotteBMW 318 CompactF20001418:51:2+ 01:39.9+ 00:00.2
3380ACQUAVIVA Jean-PascalRAHMANI ChokriRENAULT Clio Super 1600FA6K18:51:9+ 01:40.6+ 00:00.7
3433MATHIEU EricTOSI NicolasBMW M3FA818:58:2+ 01:46.9+ 00:06.3
3529CALASCIONE FabriceTOPPI AnthonyPEUGEOT 306 MaxiFA7K18:58:5+ 01:47.2+ 00:00.3
3625LANGENFELD GillesLANGENFELD FrédéricPORSCHE 997 Gt3GT+1518:58:7+ 01:47.4+ 00:00.2
37105BARBOUTAN FlorianPÉNELET-ALLEGRA AdrienCITROËN C2R218:59:5+ 01:48.2+ 00:00.8
3816GIANNINI EricMARQUEZ StéphaneFORD FiestaR519:01:6+ 01:50.3+ 00:02.1
3919RIEU JonathanJEAN-MISTRAL AlainCITROËN C3R519:03:7+ 01:52.4+ 00:02.1
40126CONSTANT LouisNAS DE TOURRIS EvaelleCITROËN SaxoF20001319:05:0+ 01:53.7+ 00:01.3
41135CANIVENQ GuillaumeCANIVENQ AdelineRENAULT ClioRC519:06:5+ 01:55.2+ 00:01.5
42114CAMPOY LaurentFERREIRA MaxencePEUGEOT 206 RcFA719:08:9+ 01:57.6+ 00:02.4
4346MICHAUD-MAILLET FrédéricCHAFFAUD SéverineRENAULT Clio R3 AccessR3C19:09:2+ 01:57.9+ 00:00.3
4463CASABIANCA AntoineBARICHELLA TonyPEUGEOT 208RC419:09:3+ 01:58.0+ 00:00.1
4540GENESCÀ ArnaudVILLANI Jean-RenéSUBARU ImprezaR419:19:5+ 02:08.2+ 00:10.2
46127CROQUET JulienTHEBAULT ValériePEUGEOT 106 S16F20001319:19:5+ 02:08.2+ 00:00.0
47122ARTZNER MathieuGIRARD VincentPEUGEOT 106 S16F20001319:20:7+ 02:09.4+ 00:01.2
4861MARTIN FabriceAMBLARD JuliePEUGEOT 208RC419:22:9+ 02:11.6+ 00:02.2
49110PIERESCHI SébastienSAVELLI AntonellaPEUGEOT 208R219:26:7+ 02:15.4+ 00:03.8
5015DE MEYER Jean MichelFRATTI EricCITROËN Ds3R519:27:9+ 02:16.6+ 00:01.2
51113BORREANI JérômeCONTE NicolasPEUGEOT 206 RcFA719:28:2+ 02:16.9+ 00:00.3
5282SCHIFANO NicolasSOLA MallauryRENAULT Clio Super 1600FA6K19:32:7+ 02:21.4+ 00:04.5
5385GHELARDINI Francois-MarieSOAVI SerenaPEUGEOT 206 XsFA6K19:34:3+ 02:23.0+ 00:01.6
5458BONFILS MathisBELLEVILLE RenéPEUGEOT 208RC419:35:9+ 02:24.6+ 00:01.6
55103CIARAMITARO StéphaneDUCOUSSO Jean-MarcPEUGEOT 208R219:36:6+ 02:25.3+ 00:00.7
56104URREIZTI GéraldZINTHALER ChristopheCITROËN C2 R2 MaxR219:39:0+ 02:27.7+ 00:02.4
57118GUIDICELLI PaulFINIDORI NoëlRENAULT Clio RagnottiFN319:41:1+ 02:29.8+ 00:02.1
58153RADTKE Paul-AndreGALEAZZI MichelPEUGEOT 106 XsiFN119:41:6+ 02:30.3+ 00:00.5
59111PUECH JérémyPUECH PaulinePEUGEOT 208R219:42:4+ 02:31.1+ 00:00.8
6067FRANCHI JosephCLER GillesPEUGEOT 206F20001419:43:7+ 02:32.4+ 00:01.3
61143LORENZONI PhilippeTINA RocketteHONDA CivicFN219:44:4+ 02:33.1+ 00:00.7
62124DIFEO JoséDIFEO JulienCITROËN C2F20001319:44:7+ 02:33.4+ 00:00.3
6398PACINI MarcelWOJCIK Paul AlexandreCITROËN C2R219:45:6+ 02:34.3+ 00:00.9
6444CRENDAL StéphanePANZANI Marie AntoinettePEUGEOT 207 RcR3T19:45:9+ 02:34.6+ 00:00.3
65136AGOSTINI QuentinCHIAPPE PatrickRENAULT ClioRC519:46:0+ 02:34.7+ 00:00.1
6628RAYNAUD VincentRAYNAUD-BALDACCI AlexandraLOTUS Exige Cup 255GT1019:47:0+ 02:35.7+ 00:01.0
6797MURATI Jean-MarieMARSICANO LucienPEUGEOT 208R219:47:4+ 02:36.1+ 00:00.4
68129ROUANET VincentENJALBAL DorianPEUGEOT 208R219:54:9+ 02:43.6+ 00:07.5
6991SAMMARTINO EddyMARTINI AndreaPEUGEOT 206FA6K19:58:4+ 02:47.1+ 00:03.5
70120LEONI AlexandreLEONI JadeRENAULT Clio RagnottiFN320:00:5+ 02:49.2+ 00:02.1
7190LORE JérémySOAVI Jean-DominiquePEUGEOT 206 XsFA6K20:03:4+ 02:52.1+ 00:02.9
72121MASCLAUX SébastienFEIBELMAN ChristophePEUGEOT 206 RcFN320:06:0+ 02:54.7+ 00:02.6
73152VIVENS OlivierPETRARCA PatricePEUGEOTF20001220:17:3+ 03:06.0+ 00:11.3
7473MARCOBAL ThierryBOYER Jean-FrancoisBMW 318 CompactF20001420:18:9+ 03:07.6+ 00:01.6
7569PISTACHI LucAUTHIER LaetitiaBMW Compact WsF20001420:22:8+ 03:11.5+ 00:03.9
7617SIMONETTI RobertSIMONETTI CéliaCITROËN Ds3A8W20:24:8+ 03:13.5+ 00:02.0
77141REBOUL MichelCRUZ BenjaminRENAULT ClioRC520:29:7+ 03:18.4+ 00:04.9
7826LAUZERTE AlainBERNAL MatthieuPEUGEOT RczGT+1520:30:5+ 03:19.2+ 00:00.8
7947DELGERY FrançoisSCHWAB StanRENAULT Clio R3tR3T20:31:8+ 03:20.5+ 00:01.3
8024MARTINEZ SébastienGIARDINA FabienALPINE A110 RgtRGT1620:32:9+ 03:21.6+ 00:01.1
81101MARTELLI CyrilBRUN Pierre-MariePEUGEOT 208R220:33:0+ 03:21.7+ 00:00.1
8249GOETZ KévinSIMONET CharlottePEUGEOT 207 RcR3T20:34:9+ 03:23.6+ 00:01.9
8392VALENTINI GeorgesBICHICCHI DominiquePEUGEOT 206 XsFA6K20:41:1+ 03:29.8+ 00:06.2
8454ALAUZUN JulienBUGIANI TonyRENAULT Clio R3 AccessR320:41:6+ 03:30.3+ 00:00.5
85115CONTI GabrielJABENEAU EddyPEUGEOT 206FA720:42:8+ 03:31.5+ 00:01.2
8648DEPEYRE MichelBATISTA ChristineCITROËN Ds3R3T20:45:1+ 03:33.8+ 00:02.3
8756BONNEFOY RolandBONNEFOY VirginieRENAULT ClioR320:47:2+ 03:35.9+ 00:02.1
8836FUGARO MarcoVERCELLI LucBMW M3FA820:47:3+ 03:36.0+ 00:00.1
8986GUISEPPONE ArnaudPETIT ArnaudPEUGEOT 206 XsFA6K21:02:2+ 03:50.9+ 00:14.9
9055ALBERTONI DylanPINELLI JérômeRENAULT Clio R3R321:02:4+ 03:51.1+ 00:00.2
9188PEDAGGI ThomasBASTIANELLI GuillaumePEUGEOT 206 XsFA6K21:02:7+ 03:51.4+ 00:00.3
9252MOULIN FrançoisTURIERE FrédéricCITROËN Ds3R3T21:04:0+ 03:52.7+ 00:01.3
93146BAVOUX OlivierPARDO DamienHONDA CivicFN221:05:3+ 03:54.0+ 00:01.3
94109LAMBERT YoannTHERRY PatrickPEUGEOT 208R221:08:0+ 03:56.7+ 00:02.7
9574FRANCISCI ThomasFRANCISCI AntoinePEUGEOT 206F20001421:11:7+ 04:00.4+ 00:03.7
9651LEBRETON CédricLEBRETON JohannaRENAULT Clio R3 MaxR3C21:18:7+ 04:07.4+ 00:07.0
97145AMADEI LucasMORIN JasonPEUGEOT 106 S16FN221:19:6+ 04:08.3+ 00:00.9
98117RENUCCI JacquesDI PILLA PhilippeRENAULT Clio RagnottiFN321:25:1+ 04:13.8+ 00:05.5
99156FABREGUES ThierryMISIANO FlorianPEUGEOT 205 JuniorF20001121:29:4+ 04:18.1+ 00:04.3
10035ARROT YohannTURQUET KarenSUBARU ImprezaFA821:45:1+ 04:33.8+ 00:15.7
101142MARTINEZ MichaelDELCROIX AntonyCITROËN Ds3R121:52:6+ 04:41.3+ 00:07.5
10266COVISA RobertGENESCA GuillaumeSUBARU ImprezaFN421:56:6+ 04:45.3+ 00:04.0
10384LACURE ChristophePEDER IngridFIAT PuntoFA6K21:58:8+ 04:47.5+ 00:02.2
10431JERUSALMI Jean-MarcLUTHEN GuillaumePEUGEOT 207 RcFA822:01:9+ 04:50.6+ 00:03.1
105154NICOLI GérardGALTIERI Marie-FloreCITROËN Ax SportFN122:03:4+ 04:52.1+ 00:01.5
106131THOUVENIN BenoîtPERRINAUD EmiliePEUGEOT 106 S16FA622:04:6+ 04:53.3+ 00:01.2
10750GOUVILLE ChristopheDUPAS PierrickRENAULT Clio R3tR3T22:06:9+ 04:55.6+ 00:02.3
108116ANDREANI DominiqueANDREANI Giulia-MariaRENAULT Clio 3 RsFN322:09:6+ 04:58.3+ 00:02.7
109108LAFITTE GuillaumeLAFITTE AngéliquePEUGEOT 208R222:30:6+ 05:19.3+ 00:21.0
110150CESARI Francois-LouisNERI JosephCITROËN Ax GtiF20001222:39:3+ 05:28.0+ 00:08.7
11157DURAND LouisBRUYERE KévinRENAULT Clio R3R322:40:9+ 05:29.6+ 00:01.6
112138ASCENZI ValentinHANOCQ WilliamRENAULT ClioRC523:37:0+ 06:25.7+ 00:56.1
11394CULLIERET TomVANNUCCI SébastienPEUGEOT 206FA6K26:06:5+ 08:55.2+ 02:29.5
11487PADOVANI AnthonyVELLUTINI Pierre LouisCITROËN Saxo VtsFA6K27:32:4+ 10:21.1+ 01:25.9
11570CHEBIL-DELSARTE NielsVALICI NicolasBMW 318 CompactF20001430:01:8+ 12:50.5+ 02:29.4
11622BOUSQUET ThierryDEFRANCE ElizabethALPINE A110 RgtRGT1631:30:4+ 14:19.1+ 01:28.6
11771CARMILLE GéraldCARMILLE VincentBMW 318 CompactF20001431:47:4+ 14:36.1+ 00:17.0
118133VILLARET BenjaminFORGUES LorianePEUGEOT 106FA5K43:36:7+ 26:25.4+ 11:49.3

Temps ES1 : VHC :

1201Vivier-Muglioni P. - Finidori P.
Renault 5 Turbo "Tour de Corse"
B/D519:20.2 86.2
2205Peres Jean-Marie - Dini G.
Lancia Delta Integrale 16V
A/E820:15.8+55.6
+55.6
82.2
2.00
3209Calendini P. - Calendini M.
Talbot Samba Rallye
B/D420:23.7+1:03.5
+7.9
81.7
2.29
4204Hayet Johann - Gaudin C.
Lancia Delta Integrale 16V
A/E820:49.0+1:28.8
+25.3
80.0
3.20
5206Lodovici J. - Santini C.
BMW M3 E30
A/E721:22.6+2:02.4
+33.6
77.9
4.41
6207Triniane-Gambassi M. - Ferro B.
Porsche 911 Carrera RS 3.0
3/B821:22.6+2:02.4
+0.0
77.9
4.41
7203Hautot P. - Metivier B.
Ford Sierra RS Cosworth
A/E821:33.2+2:13.0
+10.6
77.3
4.79
8211Pautou Lo?c - Guerini L.
BMW 325i
Classic21:38.9+2:18.7
+5.7
77.0
4.99
9214Foni J. - Martin P.
BMW 325 iX E30
Classic22:28.2+3:08.0
+49.3
74.2
6.77
10208Faure Eric - Mandelli Alain
Renault 5 GT Turbo
A/E422:40.4+3:20.2
+12.2
73.5
7.21
11215Terral J. - Delattre J.
Autobianchi A112 Abarth
2/C324:56.3+5:36.1
+2:15.9
66.8
12.1
12210De Gentili P. - Ravenel A.
Renault 12 Gordini
Classic25:45.9+6:25.7
+49.6
64.7
13.9

Partenaires
0 0 votes
Évaluation de l'article
S’abonner
Notification pour
guest

0 Commentaires
Commentaires en ligne
Afficher tous les commentaires